sat.trackr.live / text

‹ back to catalog

STARLINK-31422

NORAD 59354 · 2024-060G

PAYLOAD ACTIVE UNKNOWN

§ Identity

Operator
Country
US
Launch date
2024-03-31
Launch site
AFETR
Launch vehicle
Mass (kg)
RCS (m²)

Purposes: comms

External: N2YO · Heavens-Above · Gunter

§ Orbital elements

Epoch: 2026-05-25T03:52:32.481984Z

Period
94.27 min
Inclination
43.0012°
Eccentricity
0.0001461
Mean motion
15.27584636 rev/d
Perigee alt
482.0 km
Apogee alt
484.0 km
Semi-major
6,861.2 km
B*
3.2436e-4
RAAN
188.3778°
Arg perigee
275.8904°
Mean anomaly
84.1781°
Rev number
12,175

§ Raw data

STARLINK-314221 59354U 24060G   26145.16148706  .00008675  00000+0  32436-3 0  99952 59354  43.0012 188.3778 0001461 275.8904  84.1781 15.27584636121759

JSON: /api/v1/satellites/59354 · /tle

For live sub-satellite position, see the globe view (requires WebGL).

§ Visibility from observer

Set your observer location to see the next 7 days of passes ≥ 10°. The values pass through the URL so the page stays shareable.

No JS? Fill the form by hand. The geolocation button needs JavaScript.